Home > Time Zones > World Clock > Weather > Latvia > Riga > Past weeks

Flag for Latvia Weather past 2 weeks in Riga, Latvia

Now
50 °F

Clear.


Feels Like: 50 °F
Forecast: 47 / 66 °F
Wind: No wind

Location: Riga Airport

Current Time: Sep 17, 2014 at 10:38:09 PM

Latest Report: Sep 17, 2014 at 10:20 PM


Visibility: 6 mi

Pressure: 30.30 "Hg

Humidity: 94%

Dew point: 48 °F

Location of RigaLocation

Historic Weather in Riga — Graph

°F

Riga temperature yesterday

Maximum temperature yesterday: 66 °F (at 3:20 PM)
Minimum temperature yesterday: 39 °F (at 6:20 AM)
Average temperature yesterday: 53 °F

Past Weeks' High & Low Weather Summary

 TemperatureHumidityPressure
High75 °F (Sep 8, 2:50 PM)100% (Sep 2, 9:20 PM)30.45 "Hg (Sep 2, 9:20 PM)
Low39 °F (Sep 16, 6:20 AM)44% (Sep 6, 3:50 PM)29.89 "Hg (Sep 9, 7:20 PM)
Average58 °F85%30.22 "Hg
* Reported Sep 2 9:20 PM — Sep 17 9:20 PM, Riga, Weather by CustomWeather, © 2014

Note: Actual official high and low records may vary slightly from our data, if they occured in-between our weather recording intervals... More about our weather records

Advertising

Riga weather history for previous 24 hours

 ConditionsComfort  
Time TempWeatherWind HumidityBarometerVisibility
9:20 PM
Sep 17
50 °FClear.1 mph100%30.30 "Hg10 mi
8:50 PM54 °FClear.1 mph94%30.30 "Hg10 mi
8:20 PM54 °FSunny.No wind94%30.30 "Hg10 mi
7:50 PM55 °FSunny.2 mph88%30.30 "Hg10 mi
7:20 PM63 °FSunny.5 mph64%30.30 "Hg10 mi
6:50 PM64 °FPassing clouds.3 mph60%30.30 "HgN/A
6:20 PM64 °FPartly sunny.5 mph60%30.30 "HgN/A
5:50 PM64 °FPartly sunny.6 mph60%30.30 "HgN/A
5:20 PM64 °FPartly sunny.5 mph60%30.30 "HgN/A
4:50 PM64 °FScattered clouds.6 mph60%30.30 "HgN/A
4:20 PM66 °FScattered clouds.7 mph56%30.33 "HgN/A
3:50 PM66 °FScattered clouds.5 mph56%30.33 "HgN/A
3:20 PM66 °FScattered clouds.8 mph56%30.33 "HgN/A
2:50 PM66 °FBroken clouds.7 mph56%30.33 "HgN/A
2:20 PM64 °FScattered clouds.5 mph64%30.36 "HgN/A
1:50 PM66 °FScattered clouds.6 mph60%30.36 "HgN/A
1:20 PM64 °FScattered clouds.6 mph60%30.36 "HgN/A
12:50 PM64 °FScattered clouds.6 mph60%30.36 "HgN/A
12:20 PM64 °FPassing clouds.6 mph64%30.36 "HgN/A
11:50 AM63 °FSunny.2 mph68%30.36 "Hg10 mi
11:20 AM61 °FPassing clouds.3 mph72%30.36 "HgN/A
10:50 AM59 °FPassing clouds.3 mph77%30.36 "HgN/A
10:20 AM55 °FPassing clouds.3 mph82%30.36 "HgN/A
9:50 AM54 °FPassing clouds.3 mph88%30.36 "HgN/A
9:20 AM52 °FPassing clouds.3 mph88%30.36 "HgN/A
8:50 AM50 °FPassing clouds.3 mph94%30.36 "HgN/A
8:20 AM48 °FSunny.2 mph100%30.36 "Hg10 mi
7:50 AM48 °FClear.No wind100%30.36 "Hg10 mi
7:20 AM46 °FClear.2 mph100%30.36 "Hg6 mi
6:50 AM45 °FClear.1 mph100%30.36 "Hg6 mi
6:20 AM43 °FPassing clouds.2 mph100%30.36 "HgN/A
5:50 AM43 °FQuite cool.No wind100%30.36 "Hg5 mi
5:20 AM45 °FQuite cool.1 mph100%30.36 "Hg6 mi
4:50 AM45 °FFog.1 mph100%30.36 "HgN/A
4:20 AM45 °FQuite cool.No wind100%30.36 "Hg1 mi
3:50 AM45 °FQuite cool.No wind100%30.36 "Hg4 mi
3:20 AM45 °FQuite cool.No wind100%30.36 "Hg2 mi
2:50 AM46 °FFog.No wind100%30.36 "Hg3 mi
2:20 AM46 °FCool.1 mph100%30.36 "Hg2 mi
1:20 AM46 °FPassing clouds.1 mph100%30.36 "HgN/A
12:50 AM48 °FCool.No wind100%30.36 "Hg1 mi
12:20 AM48 °FCool.No wind100%30.36 "Hg1 mi
11:50 PM
Sep 16
48 °FFog.No wind100%30.36 "Hg2 mi
11:20 PM48 °FPassing clouds.1 mph100%30.36 "Hg4 mi
10:50 PM50 °FFog.1 mph100%30.36 "Hg4 mi
10:20 PM50 °FClear.No wind100%30.36 "Hg4 mi
Weather by CustomWeather, © 2014

See weather overviewHow to use our weather pages